TimeCDT,TemperatureF,Dew PointF,Humidity,Sea Level PressureIn,VisibilityMPH,Wind Direction,Wind SpeedMPH,Gust SpeedMPH,PrecipitationIn,Events,Conditions,WindDirDegrees,DateUTC
12:15 AM,67.8,64.0,88,29.93,10.0,SW,5.8,-,N/A,,Clear,230,2013-06-24 05:15:00
12:35 AM,67.5,64.0,89,29.93,10.0,SW,4.6,-,N/A,,Clear,220,2013-06-24 05:35:00
12:55 AM,66.7,63.9,90,29.93,10.0,SW,4.6,-,N/A,,Clear,230,2013-06-24 05:55:00
1:15 AM,65.5,63.0,92,29.93,10.0,Calm,Calm,-,N/A,,Clear,0,2013-06-24 06:15:00
1:35 AM,65.7,63.1,92,29.93,10.0,West,3.5,-,N/A,,Clear,260,2013-06-24 06:35:00
1:55 AM,64.6,62.6,93,29.93,10.0,Calm,Calm,-,N/A,,Clear,0,2013-06-24 06:55:00
2:15 AM,62.4,61.3,96,29.93,10.0,Calm,Calm,-,N/A,,Clear,0,2013-06-24 07:15:00
2:35 AM,61.9,61.2,97,29.93,10.0,Calm,Calm,-,N/A,,Clear,0,2013-06-24 07:35:00
2:55 AM,61.2,60.4,97,29.93,10.0,Calm,Calm,-,N/A,,Clear,0,2013-06-24 07:55:00
3:15 AM,60.3,60.1,99,29.93,5.0,Calm,Calm,-,N/A,,Clear,0,2013-06-24 08:15:00
3:35 AM,60.8,60.4,99,29.93,7.0,Calm,Calm,-,N/A,,Clear,0,2013-06-24 08:35:00
3:55 AM,61.2,61.0,99,29.93,5.0,Calm,Calm,-,N/A,,Clear,0,2013-06-24 08:55:00
4:15 AM,58.5,58.3,99,29.93,1.2,Calm,Calm,-,N/A,,Mist,0,2013-06-24 09:15:00
4:35 AM,58.6,58.6,100,29.93,1.0,Calm,Calm,-,N/A,,Mist,0,2013-06-24 09:35:00
4:55 AM,58.5,58.5,100,29.94,1.2,Calm,Calm,-,N/A,,Mist,0,2013-06-24 09:55:00
5:15 AM,57.0,57.0,100,29.93,0.2,Calm,Calm,-,N/A,Fog,Fog,0,2013-06-24 10:15:00
5:35 AM,56.7,56.7,100,29.93,5.0,Calm,Calm,-,N/A,,Clear,0,2013-06-24 10:35:00
5:55 AM,58.1,58.1,100,29.93,0.5,Calm,Calm,-,N/A,Fog,Fog,0,2013-06-24 10:55:00
6:15 AM,59.0,59.0,100,29.94,0.2,Calm,Calm,-,N/A,Fog,Fog,0,2013-06-24 11:15:00
6:35 AM,60.1,60.1,100,29.95,1.5,Calm,Calm,-,N/A,,Mostly Cloudy,0,2013-06-24 11:35:00
6:55 AM,61.5,61.5,100,29.95,5.0,Calm,Calm,-,N/A,,Scattered Clouds,0,2013-06-24 11:55:00
7:15 AM,63.5,63.0,98,29.96,10.0,Calm,Calm,-,N/A,,Scattered Clouds,0,2013-06-24 12:15:00
7:35 AM,65.1,64.4,98,29.96,10.0,Calm,Calm,-,N/A,,Scattered Clouds,0,2013-06-24 12:35:00
7:55 AM,67.5,66.0,95,29.97,10.0,SW,3.5,-,N/A,,Mostly Cloudy,220,2013-06-24 12:55:00
8:15 AM,68.7,66.6,93,29.98,10.0,SW,4.6,-,N/A,,Overcast,230,2013-06-24 13:15:00
8:35 AM,70.0,67.1,91,29.98,10.0,WSW,3.5,-,N/A,,Overcast,250,2013-06-24 13:35:00
8:55 AM,70.9,67.3,88,29.96,10.0,Calm,Calm,-,N/A,,Mostly Cloudy,0,2013-06-24 13:55:00
9:15 AM,72.5,67.6,85,29.96,10.0,Calm,Calm,-,N/A,,Clear,0,2013-06-24 14:15:00
9:35 AM,73.6,68.0,83,29.95,10.0,Calm,Calm,-,N/A,,Clear,0,2013-06-24 14:35:00
9:55 AM,75.2,66.9,75,29.96,10.0,Calm,Calm,-,N/A,,Clear,0,2013-06-24 14:55:00
10:15 AM,76.1,66.9,73,29.96,10.0,SSW,3.5,-,N/A,,Clear,210,2013-06-24 15:15:00
10:35 AM,77.9,67.3,70,29.95,10.0,SW,4.6,-,N/A,,Scattered Clouds,230,2013-06-24 15:35:00
10:55 AM,77.4,66.0,68,29.95,10.0,Calm,Calm,-,N/A,,Scattered Clouds,0,2013-06-24 15:55:00
11:15 AM,78.4,66.2,66,29.95,10.0,SSW,5.8,-,N/A,,Scattered Clouds,200,2013-06-24 16:15:00
11:35 AM,80.1,67.3,65,29.95,10.0,SSW,4.6,-,N/A,,Scattered Clouds,200,2013-06-24 16:35:00
11:55 AM,79.5,66.7,65,29.95,10.0,SSW,9.2,-,N/A,,Mostly Cloudy,210,2013-06-24 16:55:00
12:35 PM,79.3,67.3,66,29.95,10.0,SW,8.1,-,N/A,,Mostly Cloudy,230,2013-06-24 17:35:00
12:55 PM,81.5,67.1,61,29.94,10.0,SSW,11.5,-,N/A,,Scattered Clouds,210,2013-06-24 17:55:00
1:15 PM,79.5,67.6,67,29.94,10.0,SW,11.5,18.4,N/A,,Scattered Clouds,220,2013-06-24 18:15:00
1:35 PM,78.8,68.2,70,29.93,10.0,SSW,13.8,-,N/A,,Mostly Cloudy,210,2013-06-24 18:35:00
1:55 PM,79.7,69.1,70,29.92,10.0,SSW,12.7,17.3,N/A,,Mostly Cloudy,210,2013-06-24 18:55:00
2:15 PM,78.8,68.9,72,29.90,10.0,SW,12.7,-,N/A,,Mostly Cloudy,230,2013-06-24 19:15:00
2:35 PM,79.3,69.6,72,29.89,10.0,SSW,10.4,16.1,N/A,,Mostly Cloudy,210,2013-06-24 19:35:00
2:55 PM,79.3,69.6,72,29.89,10.0,SW,12.7,17.3,N/A,,Mostly Cloudy,230,2013-06-24 19:55:00
3:15 PM,78.3,69.4,74,29.88,10.0,SSW,8.1,18.4,N/A,,Mostly Cloudy,200,2013-06-24 20:15:00
3:35 PM,78.4,69.1,73,29.88,10.0,SW,16.1,20.7,N/A,,Mostly Cloudy,230,2013-06-24 20:35:00
3:55 PM,78.3,69.1,73,29.88,10.0,SW,11.5,-,N/A,,Mostly Cloudy,220,2013-06-24 20:55:00
4:15 PM,78.8,68.4,70,29.88,10.0,WSW,12.7,18.4,N/A,,Scattered Clouds,240,2013-06-24 21:15:00
4:35 PM,79.7,69.4,71,29.87,10.0,WSW,10.4,-,N/A,,Scattered Clouds,240,2013-06-24 21:35:00
4:55 PM,78.3,68.0,71,29.86,10.0,West,11.5,18.4,N/A,,Scattered Clouds,260,2013-06-24 21:55:00
5:15 PM,78.8,68.9,72,29.87,10.0,WSW,9.2,-,N/A,,Scattered Clouds,250,2013-06-24 22:15:00
5:35 PM,77.9,68.5,73,29.87,10.0,WSW,9.2,-,N/A,,Scattered Clouds,250,2013-06-24 22:35:00
5:55 PM,78.1,68.9,73,29.87,10.0,WSW,5.8,-,N/A,,Scattered Clouds,250,2013-06-24 22:55:00
6:15 PM,77.9,68.7,73,29.87,10.0,WSW,6.9,-,N/A,,Scattered Clouds,240,2013-06-24 23:15:00
6:35 PM,77.2,68.9,76,29.88,10.0,WSW,8.1,-,N/A,,Mostly Cloudy,240,2013-06-24 23:35:00
6:55 PM,77.0,69.8,78,29.87,10.0,SW,4.6,-,N/A,,Overcast,230,2013-06-24 23:55:00
7:15 PM,77.0,69.6,78,29.87,10.0,WSW,5.8,-,N/A,,Scattered Clouds,240,2013-06-25 00:15:00
7:35 PM,76.3,68.5,77,29.86,10.0,SSW,8.1,-,N/A,,Scattered Clouds,210,2013-06-25 00:35:00
7:55 PM,75.4,68.9,80,29.86,10.0,WSW,6.9,-,N/A,,Scattered Clouds,240,2013-06-25 00:55:00
8:15 PM,74.7,68.7,82,29.86,10.0,SW,5.8,-,N/A,,Scattered Clouds,230,2013-06-25 01:15:00
8:35 PM,73.9,68.9,84,29.86,10.0,WSW,6.9,-,N/A,,Scattered Clouds,240,2013-06-25 01:35:00
8:55 PM,73.0,68.9,87,29.85,10.0,SSW,3.5,-,N/A,,Clear,200,2013-06-25 01:55:00
9:15 PM,72.1,68.9,89,29.85,10.0,Calm,Calm,-,N/A,,Clear,0,2013-06-25 02:15:00
9:35 PM,71.8,68.7,90,29.85,10.0,Calm,Calm,-,N/A,,Clear,0,2013-06-25 02:35:00
9:55 PM,71.6,68.4,89,29.86,10.0,SW,3.5,-,N/A,,Clear,220,2013-06-25 02:55:00
10:15 PM,71.1,68.2,91,29.87,10.0,SW,5.8,-,N/A,,Scattered Clouds,230,2013-06-25 03:15:00
10:35 PM,70.9,67.6,89,29.87,10.0,SW,5.8,-,N/A,,Scattered Clouds,230,2013-06-25 03:35:00
10:55 PM,70.7,66.7,87,29.87,10.0,SW,6.9,-,N/A,,Clear,220,2013-06-25 03:55:00
11:15 PM,70.0,66.2,88,29.88,10.0,SW,6.9,-,N/A,,Clear,230,2013-06-25 04:15:00
11:35 PM,69.8,66.2,88,29.88,10.0,SW,4.6,-,N/A,,Clear,230,2013-06-25 04:35:00
11:55 PM,69.3,65.8,89,29.88,10.0,SW,5.8,-,N/A,,Clear,230,2013-06-25 04:55:00